Weather History for KHUM - April, 2013

Change the Weather History Date:

Friday, April 19, 2013

  Actual Average Record
Temperature  
Mean Temperature 60 °F -  
Max Temperature 76 °F 79 °F - (-1)
Min Temperature 44 °F 60 °F - (-1)
Degree Days  
Heating Degree Days 4    
Growing Degree Days 10 (Base 50)    
Moisture  
Dew Point 50 °F    
Average Humidity 85    
Maximum Humidity 93    
Minimum Humidity 67    
Precipitation  
Precipitation 0.83 in - - ()
Sea Level Pressure  
Sea Level Pressure 30.04 in    
Wind  
Wind Speed 11 mph (NW)    
Max Wind Speed 20 mph    
Max Gust Speed 32 mph    
Visibility 6 miles    
Events Rain , Thunderstorm    
Averages and records for this station are not official NWS values.
T = Trace of Precipitation, MM = Missing Value Source: NWS Daily Summary

Daily Weather History Graph

Daily Weather History Graph

Search for Another Location

Airport or City:

Trip Planner

Search our weather history database for the weather conditions in past years. The results will help you decide how hot, cold, wet, or windy it might be!

Date:

Astronomy

Apr. 19, 2013 Rise Set
Actual Time 6:31 AM CDT 7:32 PM CDT
Civil Twilight 6:07 AM CDT 7:56 PM CDT
Nautical Twilight 5:38 AM CDT 8:25 PM CDT
Astronomical Twilight 5:08 AM CDT 8:55 PM CDT
Moon 1:43 PM CDT (4/19) 2:18 AM CDT (4/19)
Length of Visible Light 13h 49m
Length of Day
13h 00m
First Quarter, 62% of the Moon is Illuminated
Apr 19
First Quarter
Apr 25
Full
May 2
Last Quarter
May 9
New
May 17
First Quarter

Hourly Weather History & Observations

Time (CDT) Temp. Windchill Dew Point Humidity Pressure Visibility Wind Dir Wind Speed Gust Speed Precip Events Conditions
12:15 AM 76.3 °F - 70.9 °F 83% 29.84 in 7.0 mi South 12.7 mph - N/A   Overcast
12:35 AM 76.3 °F - 70.9 °F 83% 29.83 in 7.0 mi South 11.5 mph - N/A   Overcast
12:55 AM 76.1 °F - 70.7 °F 83% 29.84 in 7.0 mi South 10.4 mph 19.6 mph N/A Thunderstorm Overcast
1:15 AM 62.1 °F - 57.6 °F 85% 29.87 in 10.0 mi NW 15.0 mph 32.2 mph N/A Rain Light Rain
1:35 AM 59.9 °F - 56.7 °F 89% 29.89 in 4.0 mi WNW 16.1 mph 25.3 mph 0.12 in Rain , Thunderstorm Heavy Thunderstorms and Rain
1:55 AM 59.0 °F - 55.9 °F 90% 29.89 in 7.0 mi NW 17.3 mph 25.3 mph 0.13 in Rain Light Rain
2:15 AM 58.5 °F - 55.4 °F 90% 29.90 in 5.0 mi WNW 9.2 mph 12.7 mph 0.03 in Rain , Thunderstorm Thunderstorms and Rain
2:35 AM 57.9 °F - 54.7 °F 89% 29.90 in 5.0 mi NW 12.7 mph 20.7 mph 0.05 in Rain Light Rain
2:55 AM 57.2 °F - 53.6 °F 88% 29.91 in 7.0 mi NW 15.0 mph 20.7 mph 0.07 in Rain , Thunderstorm Thunderstorms and Rain
3:15 AM 55.8 °F - 52.9 °F 90% 29.91 in 2.5 mi NW 12.7 mph 18.4 mph 0.31 in Rain , Thunderstorm Light Thunderstorms and Rain
3:35 AM 55.9 °F - 52.5 °F 88% 29.91 in 10.0 mi NW 13.8 mph 19.6 mph 0.31 in Thunderstorm Thunderstorm
3:55 AM 55.9 °F - 51.8 °F 86% 29.91 in 7.0 mi NNW 13.8 mph 19.6 mph 0.31 in   Overcast
4:15 AM 55.8 °F - 52.0 °F 87% 29.92 in 7.0 mi NW 10.4 mph - 0.02 in Rain Light Rain
4:35 AM 55.8 °F - 52.3 °F 88% 29.93 in 7.0 mi NW 12.7 mph 16.1 mph 0.02 in Rain , Thunderstorm Light Thunderstorms and Rain
4:55 AM 54.9 °F - 51.4 °F 88% 29.94 in 4.0 mi NW 12.7 mph - 0.06 in Rain Light Rain
5:15 AM 54.5 °F - 50.9 °F 88% 29.92 in 10.0 mi NNW 19.6 mph 25.3 mph N/A Rain Light Rain
5:35 AM 54.0 °F - 50.4 °F 88% 29.95 in 7.0 mi NW 12.7 mph 18.4 mph 0.04 in Rain Heavy Rain
5:55 AM 53.6 °F - 50.4 °F 89% 29.97 in 4.0 mi NW 19.6 mph 23.0 mph 0.26 in Rain , Thunderstorm Heavy Thunderstorms and Rain
6:50 AM 53.6 °F - 50.0 °F 88% 30.05 in 4.0 mi North 18.4 mph - N/A Rain Rain
7:50 AM 51.8 °F - 46.4 °F 82% 30.08 in 6.0 mi NNW 18.4 mph 25.3 mph N/A   Mostly Cloudy
9:50 AM 51.8 °F - 46.4 °F 82% 30.09 in 7.0 mi NW 13.8 mph 23.0 mph N/A   Overcast
10:50 AM 50.0 °F - 46.4 °F 87% 30.12 in 7.0 mi NNW 13.8 mph - N/A   Overcast
11:50 AM 51.8 °F - 44.6 °F 76% 30.12 in 7.0 mi NNW 11.5 mph - N/A   Overcast
1:50 PM 51.8 °F - 42.8 °F 71% 30.12 in 7.0 mi WNW 9.2 mph - N/A   Overcast
2:50 PM 51.8 °F - 42.8 °F 71% 30.08 in 7.0 mi NNW 9.2 mph - N/A   Overcast
3:50 PM 53.6 °F - 42.8 °F 67% 30.08 in 7.0 mi NNW 6.9 mph - N/A   Overcast
5:50 PM 53.6 °F - 42.8 °F 67% 30.12 in 7.0 mi North 5.8 mph - N/A   Mostly Cloudy
6:50 PM 53.6 °F - 42.8 °F 67% 30.10 in 7.0 mi South 5.8 mph - N/A   Scattered Clouds
7:15 PM 53.6 °F - 44.8 °F 72% 30.11 in 7.0 mi Calm Calm - N/A   Clear
7:35 PM 51.1 °F - 45.1 °F 80% 30.12 in 7.0 mi Calm Calm - N/A   Clear
7:55 PM 50.0 °F - 45.5 °F 85% 30.13 in 7.0 mi Calm Calm - N/A   Clear
8:15 PM 49.5 °F - 46.0 °F 88% 30.12 in 7.0 mi Calm Calm - N/A   Clear
8:35 PM 48.7 °F - 45.9 °F 90% 30.13 in 7.0 mi Calm Calm - N/A   Clear
8:55 PM 48.4 °F - 45.9 °F 91% 30.14 in 7.0 mi Calm Calm - N/A   Clear
9:15 PM 48.0 °F - 45.3 °F 90% 30.15 in 7.0 mi Calm Calm - N/A   Clear
9:35 PM 47.3 °F - 44.8 °F 91% 30.16 in 5.0 mi Calm Calm - N/A   Clear
9:55 PM 46.8 °F - 44.4 °F 92% 30.17 in 4.0 mi Calm Calm - N/A   Clear
10:15 PM 45.7 °F - 43.5 °F 92% 30.17 in 2.0 mi Calm Calm - N/A   Clear
10:35 PM 46.4 °F - 44.4 °F 93% 30.18 in 4.0 mi Calm Calm - N/A   Clear
10:55 PM 46.4 °F - 44.4 °F 93% 30.18 in 0.8 mi Calm Calm - N/A   Mist
11:15 PM 45.5 °F - 43.7 °F 93% 30.19 in 1.5 mi Calm Calm - N/A   Mist
11:35 PM 45.3 °F 44.0 °F 43.5 °F 93% 30.19 in 4.0 mi NNW 3.5 mph - N/A   Clear
11:55 PM 44.6 °F 43.1 °F 42.8 °F 93% 30.19 in 7.0 mi NW 3.5 mph - N/A   Clear